Miscellaneous Local Product
Issued by NWS North Platte, NE

Home | Current Version | Previous Version | Graphics & Text | Print | Product List | Glossary On
Versions: 1 2 3 4 5 6 7 8 9 10 11 12 13 14 15 16 17 18 19 20 21 22 23 24 25 26 27 28 29 30 31 32 33 34 35 36 37 38 39 40 41 42 43 44 45 46 47 48 49 50
639
AXUS43 KLBF 231010
MISLBF


WESTERN AND NORTH CENTRAL NEBRASKA HOURLY WEATHER ROUNDUP
NATIONAL WEATHER SERVICE NORTH PLATTE NE
400 AM CST MON JAN 23 2017

NOTE: "FAIR" INDICATES FEW OR NO CLOUDS BELOW 12,000 FEET WITH NO
SIGNIFICANT WEATHER AND/OR OBSTRUCTIONS TO VISIBILITY.

NOTE: STATIONS NOT REPORTING VARIABLES SUCH AS SKY/WEATHER OR
PRESSURE ARE PROVIDED BY RAWS AND APRS NETWORKS AND ARE NOT UNDER
NATIONAL WEATHER SERVICE QUALITY CONTROL.

...OBSERVATIONS IN AND NEAR THE EASTERN PANHANDLE OF NEBRASKA...

CITY           SKY/WX    TMP DP  RH WIND       PRES   REMARKS
PINE RIDGE     PTCLDY    28  19  69 SE3       29.72F
CHADRON        CLEAR     19  16  88 CALM      29.71F
ALLIANCE       PTCLDY    19  16  88 S5        29.73F WCI  12
SIDNEY         CLOUDY    30  22  72 SW9       29.75S WCI  22
CRESCENT LAKE    N/A     23  19  85 S5          N/A  WCI  17
$$

...OBSERVATIONS IN NORTHERN NEBRASKA AND FAR SOUTHERN SOUTH DAKOTA...

CITY           SKY/WX    TMP DP  RH WIND       PRES   REMARKS
WINNER         FOG       25  23  92 E6        29.84F VSB 1/4 WCI  18
VALENTINE      CLEAR     17  14  88 NE5       29.80F WCI  10
THEDFORD       MOCLDY    22  21  96 CALM      29.80F
AINSWORTH      CLOUDY    17  17  97 SE3       29.81F
O`NEILL        FOG       26  26  99 CALM      29.85F VSB 3/4
ORD            CLEAR     20  16  84 CALM      29.85F
BROKEN BOW     PTCLDY    26  24  92 CALM      29.83F
VALENTINE NWR    N/A     22  19  89 S3          N/A
BUTTE            N/A     25  23  93 CALM        N/A
HALSEY           N/A     26  22  84 CALM        N/A
CHAMBERS         N/A     23  21  91 CALM        N/A
EWING            N/A     26  25  94 N3          N/A
$$

...OBSERVATIONS IN SOUTHWEST NEBRASKA AND FAR NORTHEAST COLORADO...

CITY           SKY/WX    TMP DP  RH WIND       PRES   REMARKS
WRAY           PTSUNNY   34  25  69 S6        29.78F WCI  29
HOLYOKE        FAIR      34  30  86 S7        29.77S WCI  28
IMPERIAL       MOCLDY    31  24  75 S7        29.79F WCI  24
OGALLALA       CLOUDY    23  21  93 CALM      29.77F
NORTH PLATTE   PTCLDY    21  19  92 CALM      29.82F
MCCOOK         CLEAR     23  22  96 CALM      29.83S
LEXINGTON      PTCLDY    27  25  90 CALM      29.84F
STAPLETON        N/A     22  20  92 CALM        N/A
GOTHENBURG       N/A     26  22  85 CALM        N/A
CALLAWAY         N/A     27  25  90 SE6         N/A  WCI  21
$$

...OBSERVATIONS IN CENTRAL LINCOLN COUNTY AREA...

CITY           SKY/WX    TMP DP  RH WIND       PRES   REMARKS
N.P. AIRPORT   PTCLDY    21  19  92 CALM      29.82F
N.P. DOWNTOWN    N/A     24  23  95 CALM        N/A
N.P. SOUTHEAST   N/A     23  21  93 CALM        N/A
N.P. HILLCREST   N/A     28  26  91 CALM        N/A
$$

...SOME OBSERVATIONS FROM AROUND THE REGION...

CITY           SKY/WX    TMP DP  RH WIND       PRES   REMARKS
LARAMIE        CLOUDY    26  18  71 SW17      29.65F WCI  13
CHEYENNE       CLOUDY    27  13  55 CALM      29.68F
DENVER         CLOUDY    30  16  56 W6        29.68F WCI  24
AKRON          CLOUDY    33  21  61 S14       29.72F WCI  23
SCOTTSBLUFF    CLOUDY    25  21  85 CALM      29.74S
RAPID CITY     PTCLDY    21  19  92 E6        29.70F WCI  13
BISMARCK       CLOUDY    30  23  75 W3        29.81F
PIERRE         CLOUDY    27  23  85 CALM      29.84S
SIOUX FALLS    CLOUDY    31  29  92 NW9       29.86F WCI  23
OMAHA          CLOUDY    32  27  81 NW8       29.92R WCI  25
GRAND ISLAND   CLEAR     24  23  96 CALM      29.88F
KANSAS CITY    PTCLDY    29  26  89 W7        29.89S FOG     WCI  22
WICHITA        CLEAR     28  26  92 SE5       29.92F WCI  23
OKLAHOMA CITY  CLOUDY    30  26  85 CALM      29.95F
DALLAS         CLEAR     43  34  70 N9        29.93F
AMARILLO       CLOUDY    36  26  67 S15       29.91F WCI  27
DODGE CITY     CLOUDY    27  23  85 SW8       29.87F WCI  19
HAYS           CLEAR     25  23  92 NE3       29.86F
GOODLAND       CLOUDY    32  24  72 S10       29.78F WCI  24
$$




USA.gov is the U.S. government's official web portal to all federal, state and local government web resources and services.